Regional Weather Roundup
Issued by NWS Newport/Morehead, NC

Current Version | Previous Version | Graphics & Text | Print | Product List | Glossary On
Versions: 1 2 3 4 5 6 7 8 9 10 11 12 13 14 15 16 17 18 19 20 21 22 23 24 25 26 27 28 29 30 31 32 33 34 35 36 37 38 39 40 41 42 43 44 45 46 47 48 49 50
000 ASUS42 KMHX 091812 RWRMHX WEATHER ROUNDUP FOR EASTERN NORTH CAROLINA NATIONAL WEATHER SERVICE NEWPORT/MOREHEAD CITY NC 100 PM EST FRI DEC 09 2016 NOTE: "FAIR" INDICATES FEW OR NO CLOUDS BELOW 12,000 FEET WITH NO SIGNIFICANT WEATHER AND/OR OBSTRUCTIONS TO VISIBILITY NCZ015>017-031-032-045>047-102-103-091900- NORTH COAST CITY SKY/WX TMP DP RH WIND PRES REMARKS EDENTON SUNNY 42 19 39 N8G18 30.34F ELIZABETH CITY SUNNY 42 18 37 NW9 30.33S KITTY HAWK CLEAR 40 23 50 NW7 30.30S MANTEO SUNNY 40 22 47 N9 30.32S $$ NCZ045>047-081-094-103-104-091900- CENTRAL COAST CITY SKY/WX TMP DP RH WIND PRES REMARKS FRISCO SUNNY 43 23 45 N10 30.31S $$ NCZ095-097-098-100-101-091900- SOUTHERN COAST CITY SKY/WX TMP DP RH WIND PRES REMARKS BEAUFORT SUNNY 45 21 38 N12 30.33F CEDAR ISLAND NOT AVBL JACKSONVILLE SUNNY 43 19 38 N13G18 30.34F PINEY ISLAND CLEAR N/A N/A N/A N14 30.33S WILMINGTON SUNNY 44 20 38 N10G17 30.35F $$ NCZ011>013-027>030-043-044-078>080-089-090>093-098-091900- COASTAL PLAIN CITY SKY/WX TMP DP RH WIND PRES REMARKS AHOSKIE SUNNY 39 17 41 NW5 30.36F CLINTON SUNNY 42 21 43 NW6 30.38F ELIZABETHTOWN SUNNY 42 19 39 N7 30.37F GOLDSBORO SUNNY 42 16 35 NW8 30.35F GREENVILLE SUNNY 41 19 42 NW9 30.37S HAVELOCK SUNNY 44 20 38 N14 30.34F KENANSVILLE SUNNY 43 19 39 N8 30.37F KINSTON SUNNY 43 18 36 NW7 30.37F NEW BERN SUNNY 43 20 39 NW10G17 30.35F RICHLANDS SUNNY 42 20 41 N8 30.35F ROCKY MOUNT SUNNY 40 18 41 NW14G21 30.37F WASHINGTON SUNNY 41 17 37 N10 30.35F WHITEVILLE SUNNY 43 19 38 N7 30.37F $$ AMZ130-135-150-152-154-156-158-170-250-252-270-ANZ085-086-088-633-658-670-091900- MARINE OBSERVATIONS STATION/POSITION TIME TEMP WIND PRES WAVE SWELL AIR SEA DIR/SP/G HT/PER HT/PER (UTC) (F) (DEG/KT/KT) (MB) (FT/S) (FT/S) CHESAPEAKE LIGHT NOT AVBL 64 E VA BEACH 1750 40 58 330/ 17/ 23 1024.5 6/ 7 2/11 DUCK 1748 38 53 310/ 15/ 20 1025.8 2 E DUCK NOT AVBL OREGON INLET 1742 39 53 310/ 13/ 17 1026.1 13E OREGON INLT NOT AVBL HATTERAS CG 1748 39 54 320/ 13/ 19 1025.9 DIAMOND BUOY 1750 42 76 340/ 17/ 21 1025.7 5/ 8 3/ 8 CAPE LOOKOUT 1800 41 330/ 11/ 14 1026.7 BEAUFORT LAB 1748 42 52 330/ 7/ 13 1025.9 30 SE NEW RVR IN 1708 43 69 360/ 12/ 19 1027.4 30 SE NEW RVR IN NOT AVBL 27 SE WRIGHTSVLE 1708 43 69 360/ 12/ 21 1027.4 5 SE WRIGHTSVLE 1708 40 61 360/ 12/ 21 1027.3 225 S CAPE HAT 1650 61 73 350/ 17/ 21 1022.7 6/ 8 3/11 41 SE CHARLESTON 1650 48 73 360/ 17/ 21 1027.8 6/ 6 $$

USA.gov is the U.S. government's official web portal to all federal, state and local government web resources and services.